loading
|
Showing default

SECOR 9 (EGRS 9), 2861

Orbit data source: Space-Track

SECOR 9 (EGRS 9), 2861 is an American payload satellite that was launched on Thu, 29 Jun 1967 UTC via a THOR BURNER 2 launch vehicle from the Air Force Western Test Range (AFWTR). Payloads include a variety of satellites, spacecraft, and rockets equipped with specific instruments for various scientific and technological missions. These include communications satellites like Starlink; space stations such as the ISS; scientific satellites like the Hubble; Earth observation satellites from companies like Planet Labs, Umbra, and HawkEye 360; GPS; miniature CubeSats for education and research; and military/defense satellites.

Loading next visibility...
Loading greatness...
SECOR 9 (EGRS 9) details
Identifier
2861, 1967-065A
Orbit
Active
Last TLE update22 hours ago
Origin
Flag of USACE/GIMR (US)
ManufacturerITT
MissionDefense Geodetic
Bus & MotorSECOR, Unknown motor
Mass18 kg wet, 18 kg dry
Launch date (UTC)
1967-06-29 (57 years ago)
Launch vehicle
THOR BURNER 2
Launch site
Air Force Western Test Range (AFWTR)
Object type
Payload
Rocket body
Debris
Shape & HBRBox, 0.4 m
Radar Cross Section0.240 m², Medium (>0.1 m² and < 1m²)

Expand to show TLE details & history

TLE from 22 hours ago
0 SECOR 9 (EGRS 9)
1 02861U 67065A   24284.04564070 -.00000018  00000-0 -12055-1 0  9992
2 02861  90.0191 314.1883 0072958 326.4638  33.1593  8.36660199749608
Epoch: 2024-10-10T01:05Z
Definitive object data (Epoch: 2024-10-10T01:05:43.356Z)
Latitude-0.00001°
Longitude-81.37817°
Altitude3,811.062 km
Speed6.274 km/s
True Right ascension20h 56m 45s
True Declination0° 00' 00"
Sunlit
Object was in daylight at TLE epoch
Predictive object data (real-time)
Latitude-43.62631°
Longitude98.60427°
Altitude3,903.015 km
Speed6.223 km/s
Apparent Right ascension07h 31m 43s
Apparent Declination-45° 17' 07"
Sunlit
Object is in daylight
Predictive observer data (real-time)
Local Sidereal Time17:17:59
Azimuth246.534° WSW
Elevation-65.002°
Doppler factor1
Orbital elements
Apogee3,943.978 km
Perigee3,794.453 km
Semi-major axis10,247.352 km
Eccentricity0.0072958
Inclination90.0191°
RAAN314.1883°
Arg. of periapsis326.4638°
True anomaly33.6201°
Mean anomaly33.1593°
Eccentric anomaly33.38935°
Mean motion2.09231 °/min
BSTAR-0.012055
Period172.06 mins
No data available
No data available

SECOR 9 (EGRS 9) Visibility forecast

Observer location: 39.9160978°, -105.1181434

SECOR 9 (EGRS 9) is not visible in the next 10 days
Span
Click to sort rows by Start time (UTC) header in descending order
Start Az.
Max El. time (UTC)
Max El. Az.
Max El.
End time (UTC)
End Az.